Location: Guayaquil
(2.1667°S, 79.9000°W)
Time: 08:52:54
(UTC-05:00)

ISS - Visible Passes

Search period start: 16 November 2018 00:00
Search period end: 26 November 2018 00:00
Orbit: 401 x 408 km, 51.6° (Epoch: 16 November)

Date Brightness Start Highest point End Pass type
(mag) Time Alt. Az. Time Alt. Az. Time Alt. Az.
16 Nov -3.4 19:04:18 10° SW 19:07:31 60° NW 19:09:36 20° NNE visible
18 Nov -1.1 18:57:43 10° W 18:59:39 15° NW 19:01:35 10° NNW visible
21 Nov -1.7 04:48:11 13° N 04:50:18 23° NE 04:53:00 10° ESE visible
22 Nov -2.5 05:31:40 10° WNW 05:34:27 25° SW 05:37:15 10° S visible
23 Nov -4.0 04:42:05 71° WNW 04:42:19 77° SW 04:45:36 10° SSE visible
24 Nov -0.6 03:52:34 14° ESE 03:52:34 14° ESE 03:53:11 10° ESE visible
25 Nov -1.4 04:35:39 15° SSW 04:35:39 15° SSW 04:36:41 10° S visible
